User: anonymous   Login
Location: Muenchen
(48.1800°N, 11.5800°E)
Time: 09:23:02
(UTC+01:00)
Language:

Cosmos 2233 Rocket - Orbit

View from above orbital plane
View from above orbital plane
View from above satellite
View from above satellite

Ground track
Ground track

The orbit data is extracted from the following two-line orbital elements,

1 22488U 93008B   15025.52117840  .00000140  00000-0  12408-3 0   449
2 22488 082.9435 008.5553 0026271 151.0299 345.4566 13.77653927103960
Epoch (UTC): 25 January 2015 12:30:29
Eccentricity: 0.0026271
inclination: 82.9435°
perigee height: 953 km
apogee height: 991 km
right ascension of ascending node: 8.5553°
argument of perigee: 151.0299°
revolutions per day: 13.77653927
mean anomaly at epoch: 345.4566°
orbit number at epoch: 10396

The dashed part of the orbit path shows where the satellite is in the earth's shadow,  

DLR